FENGYUN 1C DEB

Satellite information

Favourite Embed

Satellite Type and Status

DEBRISIN ORBIT

Key statistics

Satellite FENGYUN 1C DEB at a glance.

Uptime

9715

Days in orbit

Revolutions

≈ 13.7

Per day

Orbit

SSO

Sun Synchronous Orbit

Inclination

99.6

Latest

Satellite identification and parameters

Extended collection of information and parameters for FENGYUN 1C DEB.

Object identification

Identified? True

Debris? True

Object name: FENGYUN 1C DEB

International designator: 1999-025AEE

Object number (NORAD): 30415

Object ID (CCSDS): 30415

Country: PEOPLES REPUBLIC OF CHINA (PRC)

Current information (Y/N): Y

RCS size: SMALL

Orbital parameters

Period: 105.191 minutes

Inclination: 99.646 deg

SMA: 7381.529 km

Apoapsis: 1179.626 km

Periapsis: 827.162 km

RAAN: 47.3652 deg

Eccentricy: 0.02387472

Argument of periapsis: 268.3014 deg

Mean anomaly: 121.2911 deg

Mean motion: 13.68936428 rev/day

Mean motion (dot): 0.00001767 rev/day2

B* drag term: 0.001722423 1/REarth

Two-line elements (TLE)

Creation date: Dec. 13, 2025, 5:47 p.m.

Reference frame: TEME

Reference center: EARTH

Epoch: Dec. 13, 2025, 2:48 a.m. UTC

TLE line 0: 0 FENGYUN 1C DEB

TLE line 1: 1 30415U 99025AEE 25347.11720571 .00001767 00000-0 17224-2 0 9992

TLE line 2: 2 30415 99.6460 47.3652 0238747 268.3014 121.2911 13.68936428938839

Live tracking on map

Real-time ground track for satellite FENGYUN 1C DEB.

In-orbit conjunctions

A list of the most updated potential collisions computed for object FENGYUN 1C DEB.

Target Orbit TCA Probability of collision Miss distance Type
COSMOS 1275 DEB LEO 2024-11-09 13:52:18 0.0002729628 687.0 (m) DEBRIS
COSMOS 800 LEO 2024-09-15 10:21:49 0.000294503 339.0 (m) PAYLOAD
FENGYUN 1C DEB SSO 2024-07-25 23:24:52 0.0001003201 355.0 (m) DEBRIS

Associated space launch

Chinese polar orbiting meteorological satellite

FENGYUN 1C DEB was lifted into orbit during the mission ‘Long March 4B | Feng Yun 1C’, on board a Long March 4B space rocket.

The launch took place on May 10, 1999, 1:33 a.m. from Launch Complex 7.

For more information about the launch, click the button.

Launch to space Long March 4B | Feng Yun 1C
Long March 4B | Feng Yun 1C

Agency: N/A

Status: Launch Successful

Launch date: May 10, 1999, 1:33 a.m. UTC

Rocket: Long March 4B

Launch pad: Launch Complex 7

Location: Taiyuan Satellite Launch Center, People's Republic of China

...

Latest news about this satellite

There are no fresh news available about this satellite. Check back as we update our databases every day.


Newsletter sign-up

Weekly statistics, charts and insights to help you stay on top of the space industry.